www.pogodaiklimat.ru

Погода и климат >> Архив погоды >> Россия >> Якутия >> Чумпурук


АРХИВ ПОГОДЫ в Чумпуруке

Время (UTC), дата Ветер
(напр.,м/с)
 
Видим.   Явления Облачность Т
(С)
Тd
(С)
f
(%)
Тe
(С)
Тes
(С)
Комфортность P
(гПа)
Po
(гПа)
Тmin
(С)
Tmax
(С)
R
(мм)
R24
(мм)
S
(см)
12 12.08 штиль 0 10 км дым ясно +21.0 +9.7 48 +22 +22 комфорт 1007.6 991.6 +25.5
18 12.08 СЗ 1 10 км дым ясно +11.5 +10.5 94 +11 +11 1009.5 992.8
00 13.08 СЗ 2 10 км дым ясно +13.1 +10.4 84 +12 +16 1010.0 993.5 +9.5
06 13.08 В 2 4000 м мгла ясно +25.5 +9.0 35 +26 +34 жарко 1007.8 992.0
12 13.08 С 1 4000 м мгла ясно +20.6 +12.9 61 +24 +24 комфорт 1007.9 991.9 +26.4
18 13.08 СЗ 2 4000 м мгла 3/0
[Ci fib]
+11.7 +10.1 90 +11 +11 1008.6 992.0
00 14.08 СЗ 2 4000 м мгла 1/0
[Ci fib]
+13.0 +9.9 81 +12 +16 1009.1 992.6 +10.0
06 14.08 СВ 1 10 км дым 6/5 600 м
[Cu med, cong Ci fib]
+26.5 +9.5 34 +27 +31 жарко 1007.6 991.8
12 14.08 С 1 20 км дым {гроза} 8/6 600 м
[Cb cap Ci fib]
+22.2 +10.1 46 +24 +24 комфорт 1009.0 992.9 +27.5
18 14.08 З 1 20 км дым 3/0
[Ci fib]
+13.9 +10.5 80 +14 +14 1011.0 994.5
00 15.08 С 2 20 км дым 8/3 600 м
[Cb cap Ac cast Ci fib]
+16.5 +10.5 68 +17 +18 1013.5 997.1 +13.9
06 15.08 С 2 20 км дым 10/6 600 м
[Cb cap Ac trans Cs]
+20.4 +13.4 64 +23 +25 комфорт 1013.9 997.7
12 15.08 С 2 50 км 10/0
[Ac cast Cs]
+18.4 +12.7 69 +19 +19 1014.9 998.6 +21.2
18 15.08 С 2
{10}
50 км 10/0
[Cs]
+11.9 +10.2 89 +11 +11 1017.0 1000.3
00 16.08 С 2 50 км 10/10 1000 м
[Sc]
+11.5 +8.9 84 +10 +10 1019.0 1002.3 +11.3
06 16.08 С 2
{10}
50 км 10/10 1000 м
[Sc]
+11.5 +8.7 83 +10 +10 1018.4 1001.7
12 16.08 С 1 50 км 9/6 1000 м
[Sc Ac trans]
+12.9 +9.2 78 +13 +13 1017.6 1001.0 +13.0
18 16.08 СЗ 1 50 км {ливн. осадки} 9/3 1000 м
[Sc Ac trans Ci fib]
+10.9 +9.7 92 +11 +11 1017.1 1000.4
00 17.08 С 1 50 км 10/8 1000 м
[Sc Ac As]
+11.7 +8.7 82 +12 +12 1017.3 1000.6 +10.2 0.5
06 17.08 СВ 2 50 км 10/10 600 м
[Cb cap]
+13.9 +9.6 75 +13 +13 1016.8 1000.2
12 17.08 С 1 50 км 4/3 1000 м
[Sc Ac trans]
+15.3 +11.6 79 +16 +16 1016.2 999.7 +16.4
18 17.08 СВ 1 50 км 8/8 1000 м
[Sc]
+13.9 +10.9 82 +14 +14 1015.2 998.6
00 18.08 С 1 50 км 10/10 600 м
[Sc]
+11.7 +8.9 83 +12 +12 1015.8 999.1 +10.5
06 18.08 СВ 1 20 км дым {ливн. осадки} 10/6 1000 м
[Sc Ac trans Cs]
+15.7 +11.4 76 +16 +18 1015.3 998.8
12 18.08 С 1 50 км 10/0
[Ac As Cs]
+16.7 +11.8 73 +18 +18 1014.2 997.8 +19.2 5
18 18.08 С 1 50 км 10/0
[Ac As Cs]
+12.6 +11.1 91 +13 +13 1012.7 996.2
00 19.08 С 1 20 км слаб. дождь 10/8 600 м
[Sc Ac As]
+12.5 +11.2 92 +12 +13 1013.1 996.4 +12.5 0.3
06 19.08 С 2 50 км {дождь} 10/4 600 м
[Cb cap Ac As]
+14.9 +11.4 80 +15 +16 1012.2 995.8

 

Местоположение метеостанции Чумпурук (Якутия, Россия): широта 64.23 долгота 116.90 высота над уровнем моря 139 м.

В архиве по умолчанию представлена погода в Чумпуруке за последнюю неделю. Архивные данные за месяц целиком и за предыдущие месяцы, начиная с января 2011 года, Вы можете получить, выбрав интересующий диапазон дат из раскрывающегося списка и нажав кнопку "Ввод!".


*Определитесь, кто Вы:
робот инопланетянин человек

Внимание! Время в таблицах - всемирное. Для получения местного времени необходимо прибавить поправку, которая равна 9 ч.

Смотрите также архив погоды в соседних городах и на ближайших метеорологических станциях:

Погода в Нюрбе (Якутия, Россия) (126 км)
Погода в Верхневилюйске (Якутия, Россия) (184 км)
Погода в Эйке (Якутия, Россия) (202 км)
Погода в Хабардино (Якутия, Россия) (215 км)
Погода в Крестяхе (Якутия, Россия) (222 км)
Погода в Сунтаре (Якутия, Россия) (232 км)
Погода в Вилюйске (Якутия, Россия) (235 км)
Погода в Мирном (Якутия, Россия) (244 км)
Погода в Шелагонцах (Якутия, Россия) (257 км)
Погода в Чернышевском (Якутия, Россия) (259 км)

Пояснения к столбцам:

Ветер - указаны скорость ветра в м/с - средняя за 10 мин, порывы в срок и между сроками (в фигурных скобках) и направление, откуда дует ветер: С - северный, СВ - северо-восточный, В - восточный, ЮВ - юго-восточный, Ю - южный, ЮЗ - юго-западный, З - западный, СЗ - северо-западный.
Видимость - горизонтальная дальность видимости в метрах или километрах. При видимости от 1 до 10 км при отсутствии осадков обычно наблюдается дымка, при ухудшении видимости до 1 км и менее - туман. В сухую погоду видимость может ухудшаться дымом, пылью или мглою.
Явления - указаны атмосферные явления, наблюдавшиеся в срок или в последний час перед сроком; фигурными скобками обозначены явления, наблюдавшиеся между сроками (за 1-3 часа до срока); квадратными скобками обозначены град или гололедные отложения с указанием их диаметра в мм.
Облачность - указаны через наклонную черту общая и нижняя облачность в баллах и высота нижней границы облаков в метрах; квадратными скобками обозначены формы облаков: Ci - перистые, Cs - перисто-слоистые, Cc - перисто-кучевые, Ac - высококучевые, As - высокослоистые, Sc - слоисто-кучевые, Ns - слоисто-дождевые, Cu - кучевые, Cb - кучево-дождевые. Подробнее классификацию облаков см. в Атласе облаков (PDF).
T - Температура воздуха - температура, измеренная на высоте 2 м над землей.
Td - Температура точки росы - температура, при понижении до которой содержащийся в воздухе водяной пар достигнет насыщения.
f - Относительная влажность воздуха - влажноcть воздуха, измеренная на высоте 2 м над землей.
Te - Эффективная температура - температура, которую ощущает одетый по сезону человек в тени. Характеристика душности погоды. При расчете учитывается влияние влажности воздуха и скорости ветра на теплоощущения человека.
Tes - Эффективная температура на солнце - температура, которую ощущает человек, с поправкой на солнечный нагрев. Характеристика знойности погоды. Зависит от высоты солнца над горизонтом, облачности и скорости ветра. Ночью, в пасмурную погоду, а также при ветре 12 м/с и более поправка равна нулю.
P - Атмосферное давление - приведенное к уровню моря атмосферное давление.
Po - Атмосферное давление - измеренное на уровне метеостанции атмосферное давление.
Tmin - Минимальная температура - минимум температуры воздуха на высоте 2 м над землей.
Tmax - Максимальная температура - максимум температуры воздуха на высоте 2 м над землей.
R - Количество осадков - Количество выпавших осадков за период времени, мм. При наведении курсора мыши на число - период времени, за который выпало указанное количество осадков.
R24 - Количество осадков - Количество выпавших осадков за 24 часа, мм.
S - Снежный покров - Высота снежного покрова, см. При наведении курсора мыши на число - состояние снежного покрова и степень покрытия местности в баллах.